Вернуться в каталог

ELEKTRON 1 DEB

АктивенUNKNOWN
NORAD 750·DEBRIS·🇷🇺 Russia

Запущен Jan 30, 1964 с Baikonur Cosmodrome

Loading…

Ближайшие Пролёты (ближайшие 24 часа)

TLE

СвежийSource: Space-Track

Эпоха: Sep 14, 2026, 21:03 UTC

1 00750U 64006C   26257.87746625  .00020234  00000-0  18586-2 0  9996
2 00750  60.7425 121.6928 1373553 107.9331 267.5895 12.53896828857899

Отслеживайте ELEKTRON 1 DEB в реальном времени с AllMySat

Download on the App Store